Probability
0 0 0 0 0 0 0 0 0 0 0 0 0 0 0 0 0 0 0 0 0 0 0 0 0 0 0 0 0 0 0 0 0 0 0 0 0 0 0 0 0 0 0
0 0 0 0 0 0 0 0 0 0 0 0 0 0 0 0 0 0 0 0 0 0 0 0 0 0 0 0 0 0 0 0 0 0 0 0 0 0 0 0 0 0 0
0 0 0 0 0 0 0 0 0 0 0 0 0 0 0 0 0 0 0 0 0 0 0 0 0 0 0 0 0 0 0 0 0 0 0 0 0 0 0 0 0 0 0
0 0 0 0 0 0 0 0 0 0 0 0 0 0 0 0 0 0 0 0 0 0 0 0 0 0 0 0 0 0 0 0 0 0 0 0 0 0 0 0 0 0 0
0 0 0 0 0 0 0 0 0 0 0 0 0 0 0 0 0 0 0 0 0 0 0 0 0 0 0 0 0 0 0 1 1 1 1 1 0 0 0 0 0 0 0
0 0 0 0 0 0 0 0 0 0 0 0 0 0 0 0 0 0 0 0 0 0 0 0 0 0 0 0 0 0 0 1 2 2 2 2 1 1 1 0 0 0 0
0 0 0 0 0 0 0 0 0 0 0 0 0 0 0 0 0 0 0 0 0 0 0 0 0 0 0 0 0 0 0 1 3 4 4 3 3 2 2 1 0 0 0
0 0 0 0 0 0 0 0 0 0 0 0 0 0 0 0 0 0 0 0 0 0 0 0 0 0 0 0 0 0 0 1 3 4 4 4 4 3 3 2 1 1 1
0 0 0 0 0 0 0 0 0 0 0 0 0 0 0 0 0 0 0 0 0 0 0 0 0 0 0 0 0 0 0 2 3 3 4 4 4 4 4 3 3 3 3
0 0 0 0 0 0 0 0 0 0 0 0 0 0 0 0 0 0 0 0 0 0 0 0 0 0 0 0 0 0 0 1 2 2 2 3 4 5 6 5 5 5 4
1 0 0 0 0 0 0 0 0 0 0 0 0 0 0 0 0 0 0 0 0 0 0 0 0 0 0 0 0 0 0 0 1 2 1 2 4 6 8 7 6 5 4
1 0 0 0 0 0 0 0 0 0 0 0 0 0 0 0 0 0 0 0 0 0 0 0 0 0 0 0 0 0 0 0 0 0 0 1 3 5 6 6 6 4 2
1 0 0 0 0 0 0 0 0 0 0 0 0 0 0 0 0 0 0 0 0 0 0 0 0 0 0 0 0 0 0 0 0 0 0 0 1 2 2 2 4 3 1
1 0 0 0 0 0 0 0 0 0 0 0 0 0 0 0 0 0 0 0 0 0 0 0 0 0 0 0 0 0 0 0 0 0 0 0 0 0 0 0 1 1 1
2 1 1 1 1 1 1 1 1 0 0 0 0 0 0 0 0 0 0 0 0 0 0 0 0 0 0 0 0 0 0 0 0 0 0 0 0 0 0 0 0 0 0
3 3 2 2 2 2 2 2 2 1 1 0 0 0 0 0 0 0 0 0 0 0 0 0 0 0 0 0 0 0 0 0 0 0 0 0 0 0 0 0 0 0 0
3 3 3 3 3 3 2 3 3 3 2 1 0 0 0 0 0 0 0 0 0 0 0 0 0 0 0 0 0 0 0 0 0 0 0 0 0 0 0 0 0 0 0
2 2 2 2 2 2 2 2 2 3 3 2 1 0 0 0 0 0 0 0 0 0 0 0 0 0 0 0 0 0 0 0 0 0 0 0 0 0 0 0 0 0 0
1 1 0 1 1 1 1 1 1 1 2 3 2 1 0 0 0 0 0 0 0 0 0 0 0 0 0 0 0 0 0 0 0 0 0 0 0 0 0 0 0 0 0
0 0 0 0 0 0 0 0 0 0 1 2 3 2 1 0 0 0 0 0 0 0 0 0 0 0 0 0 0 0 0 0 0 0 0 1 1 1 0 0 0 0 0
0 0 0 0 0 0 0 0 0 0 0 1 2 2 1 0 0 0 0 0 0 0 0 0 0 0 0 0 0 0 0 0 0 0 0 1 2 2 1 1 0 0 0
0 0 0 1 1 1 1 0 0 0 0 0 1 2 2 1 0 0 0 0 0 0 0 0 0 0 0 0 0 0 0 0 0 0 0 1 2 2 2 2 1 0 0
1 1 1 2 2 2 2 1 0 0 0 0 0 1 1 1 0 0 0 0 0 0 0 0 0 0 0 0 0 0 0 0 0 0 0 0 1 1 2 2 1 0 0
4 3 3 4 4 3 3 1 0 0 0 0 0 0 0 0 0 0 0 0 0 0 0 0 0 0 0 0 0 0 0 0 0 0 0 0 0 0 1 1 1 0 0
4 5 5 5 4 4 3 2 1 1 1 0 0 0 0 0 0 0 0 0 0 0 0 0 0 0 0 0 0 0 0 0 0 0 0 0 0 0 0 0 0 0 0
4 4 4 4 4 4 3 2 1 2 2 1 0 0 0 0 0 0 0 0 0 0 0 0 0 0 0 0 0 0 0 0 0 0 0 0 0 0 0 0 0 0 0
Wind_Speed
2 1 1 1 1 1 1 1 2 2 2 2 2 3 3 3 3 2 2 6 6 6 7 8 8 8 8 8 8 8 7 7 7 7 7 6 6 6 6 5 6 5 5
2 2 1 1 1 1 1 1 1 1 1 1 1 2 3 3 3 3 2 3 6 7 7 7 8 8 8 8 8 8 8 8 7 7 7 7 6 6 7 6 6 6 6
3 2 2 1 1 1 1 1 1 1 1 1 1 2 2 2 3 3 3 2 3 6 7 7 8 8 9 9 9 9 8 8 8 8 7 7 7 7 7 6 6 6 6
4 3 2 2 1 2 2 2 1 1 1 1 1 1 1 2 3 3 3 3 2 3 5 8 8 8 9 10 10 10 9 9 8 8 8 8 8 8 8 7 7 7 7
4 3 3 2 2 2 2 2 1 1 1 1 1 1 1 2 2 3 4 5 4 4 3 5 8 8 10 10 10 10 10 10 10 10 10 10 10 9 9 9 8 8 8
4 4 3 3 3 2 2 2 2 1 1 1 1 0 1 2 2 3 4 4 4 5 5 5 4 5 9 10 10 10 10 11 11 11 11 11 11 10 10 9 9 9 10
4 4 3 3 3 3 3 3 2 2 1 1 1 1 2 1 2 3 3 4 5 5 5 5 4 4 3 6 8 9 11 11 11 11 11 11 10 10 10 10 10 10 10
4 4 4 3 3 3 3 3 3 2 1 2 2 1 1 2 2 2 2 4 4 3 5 5 5 5 4 3 4 8 10 11 11 11 11 10 10 9 9 10 10 10 10
5 4 4 4 4 4 4 4 4 4 3 2 2 3 2 3 2 2 1 2 2 2 3 4 5 5 5 4 4 6 9 9 10 10 10 10 9 9 10 10 10 10 10
4 4 5 5 5 4 4 5 5 4 4 3 2 2 2 3 2 1 2 1 1 2 3 3 3 4 4 4 4 6 7 7 8 8 9 9 9 9 9 9 9 9 8
3 4 5 4 4 4 5 5 4 5 4 4 3 3 2 1 2 2 2 1 1 1 1 2 2 2 2 3 3 4 5 6 5 6 6 6 6 6 7 7 8 8 8
2 3 3 4 4 4 5 5 5 5 4 4 3 3 3 3 3 3 3 3 2 1 1 1 1 1 1 1 2 3 4 3 3 3 3 4 3 3 4 5 5 5 6
2 3 3 3 3 3 4 4 4 4 5 5 5 3 3 3 2 3 3 2 2 1 1 0 0 1 0 0 0 2 2 2 3 2 2 2 2 2 2 2 3 3 4
2 2 3 3 2 2 3 3 3 3 3 4 4 4 3 3 3 3 3 3 2 1 1 1 0 0 0 1 1 2 2 4 4 3 2 2 2 2 2 1 1 2 3
2 2 2 2 2 2 2 2 2 2 2 2 2 3 2 2 2 3 3 3 3 3 2 2 1 1 1 1 2 2 2 5 5 4 4 4 4 4 3 3 3 4 3
1 2 2 1 1 1 1 2 2 1 2 1 1 1 1 1 1 1 2 2 3 3 2 1 1 1 1 2 4 3 4 7 7 6 6 6 7 6 6 5 5 5 5
2 2 2 2 1 1 1 2 2 2 2 1 1 1 1 1 1 0 1 1 1 2 2 1 1 1 2 2 3 3 3 4 4 8 8 8 8 8 8 7 7 7 7
2 2 2 2 2 2 2 2 2 2 2 1 1 1 0 0 0 0 1 1 1 2 2 2 1 1 2 3 3 4 3 4 4 7 8 8 8 8 8 7 8 8 8
2 2 3 2 2 2 2 2 2 2 2 1 1 1 1 1 1 1 1 1 1 1 1 2 2 1 2 2 3 4 4 3 4 5 7 8 8 8 8 8 8 8 8
3 2 2 2 2 2 2 2 3 2 2 2 2 2 2 2 1 1 1 1 2 2 2 3 3 2 2 2 2 3 3 3 3 3 5 5 7 8 8 8 7 7 7
3 2 2 2 2 2 2 3 3 3 3 3 3 3 3 4 4 3 2 2 2 3 3 3 3 2 2 2 2 2 2 2 2 2 2 2 3 3 4 5 6 6 6
3 3 3 3 3 2 4 5 4 3 3 3 3 3 3 4 5 6 6 6 5 3 3 2 2 2 1 1 1 2 2 2 1 1 1 1 2 2 2 2 4 5 5
3 3 3 3 3 3 5 5 6 4 4 3 2 2 2 3 4 4 6 7 7 6 4 3 3 2 2 2 3 3 2 2 1 1 1 1 1 1 1 2 3 3 3
3 3 3 3 3 3 5 5 6 4 4 3 2 2 3 3 3 4 5 6 5 5 4 3 2 1 1 2 3 3 3 4 3 2 1 1 0 0 0 0 1 1 1
3 2 2 2 3 3 4 5 5 4 4 3 3 3 3 3 4 6 5 5 5 4 6 7 7 6 6 5 4 4 4 3 2 1 0 1 0 0 0 0 0 0 0
3 3 3 2 2 2 3 5 5 3 4 3 3 3 4 4 5 5 4 4 4 2 3 5 6 6 6 6 6 3 3 3 2 1 0 1 1 1 1 0 0 0 0
Wind_Direction
147 136 126 115 104 94 93 91 89 85 90 98 130 145 156 156 155 158 174 182 180 179 178 177 176 175 174 174 174 173 171 174 177 175 174 173 174 175 175 175 174 177 179
166 166 173 177 171 151 126 121 121 108 97 105 130 147 160 165 169 170 184 197 194 192 193 191 188 187 186 184 186 188 188 189 189 187 189 187 188 191 195 196 193 194 194
177 175 187 205 207 166 146 123 107 104 116 117 126 154 165 178 183 190 194 201 208 208 206 205 202 200 200 199 200 201 201 201 198 198 198 197 198 202 206 206 206 206 205
182 180 197 216 198 155 149 149 139 120 112 126 149 193 185 193 203 204 201 203 209 217 220 218 215 214 213 213 212 211 210 209 207 208 209 209 211 214 215 216 216 213 212
189 183 199 208 179 160 164 176 152 150 159 174 194 206 206 213 221 217 213 213 213 218 223 230 228 225 226 226 224 221 218 216 216 216 219 220 221 221 221 222 222 220 219
189 181 192 197 175 164 172 172 158 147 156 173 197 273 256 236 227 227 227 222 221 224 224 229 232 237 237 236 233 231 227 223 221 223 225 226 226 224 224 226 226 226 225
187 181 190 183 177 182 191 180 159 156 164 134 96 360 332 268 237 233 227 225 229 229 224 224 226 230 241 243 241 239 236 232 227 225 226 227 227 225 225 227 229 228 230
186 193 191 190 187 182 187 183 167 155 175 161 149 125 336 331 312 251 231 228 233 226 227 226 223 225 229 233 239 241 241 239 235 230 225 224 227 226 226 228 229 228 229
195 197 193 192 192 188 198 199 184 177 184 192 181 160 170 232 300 324 271 240 230 225 237 232 224 226 227 227 236 244 244 245 242 238 233 227 224 224 226 229 231 231 230
197 199 200 198 199 198 203 208 197 189 175 191 198 205 193 171 179 292 320 301 248 238 244 241 232 226 225 222 222 227 235 237 240 244 243 236 228 224 226 229 233 229 221
203 204 201 198 204 206 209 209 199 195 189 189 189 181 185 190 191 197 256 291 313 268 246 236 231 227 221 218 218 218 218 225 229 235 239 238 231 224 224 228 231 226 220
215 215 205 202 208 211 213 210 205 201 200 198 197 189 179 182 192 192 221 244 261 279 270 250 244 236 231 223 212 196 203 205 205 215 225 226 223 229 231 226 225 221 217
215 218 204 202 209 216 214 202 200 208 202 200 202 203 204 210 186 183 195 223 245 263 267 314 272 252 216 149 179 148 148 133 132 153 180 199 193 188 193 190 203 202 204
222 211 199 204 210 213 212 192 195 209 199 200 204 199 204 214 202 198 191 185 220 246 236 237 26 150 93 108 85 103 107 104 111 119 131 148 149 143 131 131 163 163 159
211 193 188 190 198 200 197 180 180 200 180 190 198 196 202 210 202 209 202 191 193 224 242 218 202 138 127 104 91 98 102 96 101 102 104 107 103 103 104 105 112 118 119
185 161 163 166 170 168 161 152 150 157 149 161 159 152 175 217 207 207 207 209 208 207 225 198 199 177 140 116 100 100 95 90 87 95 96 95 92 89 89 92 96 102 104
147 149 151 146 136 123 124 132 134 130 139 137 135 148 172 157 170 204 204 198 195 185 204 210 120 104 109 108 85 77 76 80 80 84 88 91 91 90 89 88 88 87 88
129 131 124 119 113 111 118 132 140 136 146 152 154 134 175 153 125 148 180 192 186 180 174 179 135 103 99 114 97 86 78 78 77 78 84 87 89 89 89 89 88 86 84
109 108 111 111 108 111 111 111 117 114 125 133 126 127 122 111 95 66 87 109 132 132 138 149 138 100 85 102 93 84 77 63 72 77 80 79 80 84 85 87 89 89 87
107 103 100 103 108 109 108 106 108 110 105 88 81 86 83 92 93 90 88 90 107 108 109 120 117 109 102 100 107 109 93 66 65 61 63 67 71 77 79 84 89 91 91
96 97 95 85 85 95 99 114 113 107 101 91 75 66 70 77 79 85 91 95 107 109 111 116 117 117 117 131 138 130 123 104 65 51 66 57 60 64 66 70 77 84 92
81 88 93 91 79 71 87 103 118 112 104 99 89 73 68 61 72 76 77 82 94 113 128 126 129 141 149 152 123 135 136 139 121 33 87 65 57 62 56 67 68 80 92
86 78 79 81 77 77 87 93 103 108 102 95 93 90 81 67 78 85 77 73 69 70 92 131 138 152 162 178 157 148 148 140 132 139 127 92 48 58 33 57 71 79 83
95 82 76 86 87 76 81 95 100 100 96 88 83 95 98 78 87 101 93 78 65 55 62 81 107 117 128 153 161 154 140 114 91 65 85 134 102 272 309 13 65 104 100
91 81 80 91 92 77 82 103 107 103 95 84 76 81 97 92 91 103 102 93 75 57 61 73 74 74 80 93 110 113 115 122 103 75 40 144 161 239 277 295 33 96 185
104 98 78 65 81 83 85 104 116 114 106 96 79 70 79 93 94 104 110 112 101 72 70 68 62 58 65 78 85 106 139 137 120 116 139 160 137 157 164 156 6 182 189